DELTA 1 DEB, 3417

Orbit data source: Space-Track

DELTA 1 DEB, 3417 is space debris in SSO originally from a launch on Fri, 16 Aug 1968 UTC launched from the Air Force Western Test Range (AFWTR). Debris objects in space refer to the collection of defunct objects orbiting the Earth. Examples of debris include non-operational satellites, rocket bodies, and fragments generated from explosions, collisions, or faulty payload assembly.

Loading next visibility...
DELTA 1 DEB details
Identifier
3417, 1968-069D
Orbit
SSO
Last TLE update1 day ago
Origin
Flag of USGSFC (US)
ManufacturerUnknown
MissionSpacecraft
Bus & MotorUnknown
MassUnknown
Launch date (UTC)
1968-08-16 (56 years ago)
Launch vehicleUnknown
Launch site
Air Force Western Test Range (AFWTR)
Object type
Payload
Rocket body
Debris
Shape & HBRUnknown
Radar Cross SectionSmall (<0.1 m²)

Expand to show TLE details & history

TLE from 1 day ago
0 DELTA 1 DEB
1 03417U 68069D   24355.38398198 -.00000009  00000-0  27129-3 0  9996
2 03417 102.1243 290.2606 0066160 340.7145 138.1885 12.39761806855441
Epoch: 2024-12-20T09:12Z
Definitive object data (Epoch: 2024-12-20T09:12:56.043Z)
Latitude58.49295°
Longitude-97.01143°
Altitude1,556.327 km
Speed7.077 km/s
True Right ascension08h 42m 41s
True Declination58° 21' 18"
Sunlit
Object was in full shadow at TLE epoch
Visualization TLE readout
Latitude67.01897°
Longitude33.57916°
Altitude1,520.391 km
Speed7.111 km/s
Apparent Right ascension00h 29m 13s
Apparent Declination46° 15' 47"
Sunlit
Object is in daylight
Visualization observer readout
Local Sidereal Time14:58:32
Azimuth24.809° NE
Elevation2.406°
Doppler factor1
Orbital elements
Apogee altitude1,557.351 km
Perigee altitude1,453.039 km
Semi-major axis7,883.332 km
Eccentricity0.006616
Inclination102.1243°
RAAN290.2606°
Arg. of periapsis340.7145°
True anomaly138.69083°
Mean anomaly138.1885°
Eccentric anomaly138.43998°
Mean motion3.10083 °/min
BSTAR0.00027129
Orbital period116.1 mins
Loading maneuver chart data...
Loading historical data...
Loading historical data...
Loading historical data...
Loading historical data...
Loading historical data...
Loading historical data...
Loading historical data...

DELTA 1 DEB Visibility forecast

Observer location: undefined°, undefined

Span
Click to sort rows by Start time (UTC) header in descending order
Start Az.
Max El. time (UTC)
Max El. Az.
Max El.
End time (UTC)
End Az.
11 mins2024-12-21 17:41:10.269Z91.695° ESE2024-12-21 17:46:10.269Z53.257° ENE19.524°2024-12-21 17:52:10.269Z7.461° NNE
15 mins2024-12-21 19:32:10.269Z157.894° S2024-12-21 19:39:10.269Z88.509° E44.952°2024-12-21 19:47:10.269Z343.016° N
9 mins2024-12-21 21:30:10.269Z236.467° WSW2024-12-21 21:34:10.269Z268.79° W17.568°2024-12-21 21:39:10.269Z306.964° NW
13 mins2024-12-22 07:43:10.269Z42.787° NE2024-12-22 07:49:10.269Z96.703° ESE29.029°2024-12-22 07:56:10.269Z156.221° SSE
15 mins2024-12-22 09:36:10.269Z7.964° NNE2024-12-22 09:43:10.269Z301.677° NW40.039°2024-12-22 09:51:10.269Z221.561° SW
5 mins2024-12-22 11:33:10.269Z332.745° NNW2024-12-22 11:35:10.269Z318.374° NNW13.198°2024-12-22 11:38:10.269Z296.923° NW
|